EHI
0 0 0 0 0 0 0 0 0 0 0 0 0 0 0 0 0 0 0 0 0 0 0 0 0 0 0 0 0 0 0 0 0 0 0 0 0 0 0 0 0 0 0
0 0 0 0 0 0 0 0 0 0 0 0 0 0 0 0 0 0 0 0 0 0 0 0 0 0 0 0 0 0 0 0 0 0 0 0 0 0 0 0 0 0 0
0 0 0 0 0 0 0 0 0 0 0 0 0 0 0 0 0 0 0 0 0 0 0 0 0 0 0 0 0 0 0 0 0 0 0 0 0 0 0 1 0 0 0
0 0 0 0 0 0 0 0 0 0 0 0 0 0 0 0 0 0 0 0 0 0 0 0 0 0 0 0 0 0 0 0 0 0 0 0 0 0 0 0 0 0 0
0 0 0 0 0 0 0 0 0 0 0 0 0 0 0 0 0 0 0 0 0 0 0 0 0 0 0 0 0 0 0 0 0 0 0 0 0 0 0 0 0 0 0
0 0 0 0 0 0 0 0 0 0 0 0 0 0 0 0 0 0 0 0 0 0 0 0 0 0 0 0 0 0 0 0 0 0 0 0 0 0 0 0 0 0 0
0 0 0 0 0 0 0 0 0 0 0 0 0 0 0 0 0 0 0 0 0 0 0 0 0 0 0 0 0 0 0 0 0 0 0 0 0 0 0 0 0 0 0
0 0 0 0 0 0 0 0 0 0 0 0 0 0 0 0 0 0 0 0 0 0 0 0 0 0 0 0 0 0 0 0 0 0 0 0 0 0 0 0 0 0 0
0 0 0 0 0 0 0 0 0 0 0 0 0 0 0 0 0 0 0 0 0 0 0 0 0 0 0 0 0 0 0 0 0 0 0 0 0 0 0 0 0 0 0
0 0 0 0 0 0 0 0 0 0 0 0 0 0 0 0 0 0 0 0 0 0 0 0 0 0 0 0 0 0 0 0 0 0 0 0 0 0 0 0 0 0 0
0 0 0 0 0 0 0 0 0 0 0 0 0 0 0 0 0 0 0 0 0 0 0 0 0 0 0 0 0 0 0 0 0 0 0 0 0 0 0 0 0 0 0
0 0 0 0 0 0 0 0 0 0 0 0 0 0 0 0 0 0 0 0 0 0 0 0 0 0 0 0 0 0 0 0 0 0 0 0 0 0 0 0 0 0 0
0 0 0 0 0 0 0 0 0 0 0 0 0 0 0 0 0 0 0 0 0 0 0 0 0 0 0 0 0 0 0 0 0 0 0 0 0 0 0 0 0 0 0
0 0 0 0 0 0 0 0 0 0 0 0 0 0 0 0 0 0 0 0 0 0 0 0 0 0 0 0 0 0 0 0 0 0 0 0 0 0 0 0 0 0 0
0 0 0 0 0 0 0 0 0 0 0 0 0 0 0 0 0 0 0 0 0 0 0 0 0 0 0 0 0 0 0 0 0 0 0 0 0 0 0 0 0 0 0
0 0 0 0 0 0 0 0 0 0 0 0 0 0 0 0 0 0 0 0 0 0 0 0 0 0 0 0 0 0 0 0 0 0 0 0 0 0 0 0 0 0 0
0 0 0 0 0 0 0 0 0 0 0 0 0 0 0 0 0 0 0 0 0 0 0 0 0 0 0 0 0 0 0 0 0 0 0 0 0 0 0 0 0 0 0
0 0 0 0 0 0 0 0 0 0 0 0 0 0 0 0 0 0 0 0 0 0 0 0 0 0 0 0 0 0 0 0 0 0 0 0 0 0 0 0 0 0 0
0 0 0 0 0 0 0 0 0 0 0 0 0 0 0 0 0 0 0 0 0 0 0 0 0 0 0 0 0 0 0 0 0 0 0 0 0 0 0 0 0 0 0
0 0 0 0 0 0 0 0 0 0 0 0 0 0 0 0 0 0 0 0 0 0 0 0 0 0 0 0 0 0 0 0 0 0 0 0 0 0 0 0 0 0 0
0 0 0 0 0 0 0 0 0 0 0 0 0 0 0 0 0 0 0 0 0 0 0 0 0 0 0 0 0 0 0 0 0 0 0 0 0 0 0 0 0 0 0
0 0 0 0 0 0 0 0 0 0 0 0 0 0 0 0 0 0 0 0 0 0 0 0 0 0 0 0 0 0 0 0 0 0 0 0 0 0 0 0 0 0 0
0 0 0 0 0 0 0 0 0 0 0 0 0 0 0 0 0 0 0 0 0 0 0 0 0 0 0 0 0 0 0 0 0 0 0 0 0 0 0 0 0 0 0
0 0 0 0 0 0 0 0 0 0 0 0 0 0 0 0 0 0 0 0 0 0 0 0 0 0 0 0 0 0 0 0 0 0 0 0 0 0 0 0 0 0 0
0 0 0 0 0 0 0 0 0 0 0 0 0 0 0 0 0 0 0 0 0 0 0 0 0 0 0 0 0 0 0 0 0 0 0 0 0 0 0 0 0 0 0
0 0 0 0 0 0 0 0 0 0 0 0 0 0 0 0 0 0 0 0 0 0 0 0 0 0 0 0 0 0 0 0 0 0 0 0 0 0 0 0 0 0 0
Wind_Speed
2 2 2 1 2 3 3 4 4 5 5 5 5 4 4 4 3 2 2 2 2 2 2 3 3 3 3 3 3 3 3 4 4 2 1 1 3 4 4 4 4 6 6
2 2 1 2 2 3 3 4 4 4 4 4 4 4 4 3 3 3 2 2 2 2 2 2 3 2 3 3 3 4 3 4 4 4 2 2 3 3 3 4 4 4 5
3 2 1 1 1 2 3 4 4 4 4 4 4 4 4 4 3 3 3 2 1 1 2 2 3 3 3 3 4 4 3 3 3 4 3 2 2 3 3 3 4 3 4
3 2 2 1 1 2 3 3 4 4 4 4 4 3 4 3 3 3 3 2 2 1 2 2 2 3 3 4 4 4 4 4 4 4 3 3 3 3 4 3 3 3 3
4 3 2 2 1 2 2 2 3 4 4 4 4 3 4 3 4 5 3 3 2 2 2 2 2 2 2 3 3 4 4 4 4 4 4 4 4 3 4 3 3 3 3
4 3 2 2 2 2 2 3 3 3 4 3 3 4 3 3 5 6 6 3 3 3 2 2 1 1 1 3 3 4 4 5 5 5 4 5 4 4 3 3 3 3 3
5 3 3 3 2 2 2 2 3 3 3 3 3 3 4 3 4 4 5 5 3 3 3 3 2 1 2 2 3 5 5 5 6 6 5 5 4 4 4 4 4 4 4
4 4 3 3 2 2 2 2 3 3 2 3 3 4 3 3 4 4 5 4 3 2 3 3 3 2 2 3 2 3 3 3 4 6 5 5 4 3 4 4 3 3 3
4 4 3 3 2 2 2 2 3 3 2 3 2 3 3 2 4 4 6 3 2 2 3 3 4 3 4 4 3 2 2 2 2 4 4 4 3 3 3 3 4 4 4
4 3 3 2 2 1 2 2 2 2 3 3 2 2 3 3 5 6 7 3 2 2 2 2 4 5 5 4 4 3 2 2 2 2 3 4 5 5 7 7 5 5 4
4 4 3 2 2 1 1 1 2 2 2 2 1 1 2 3 4 5 6 3 3 3 2 2 4 5 5 4 5 4 4 4 3 2 2 2 2 2 4 5 5 5 5
5 4 3 2 1 1 0 1 1 1 1 1 1 2 2 2 4 4 5 4 6 3 3 3 4 6 4 5 4 5 5 4 2 1 1 1 2 2 2 3 4 4 5
6 5 4 3 2 1 1 1 0 1 1 2 2 2 2 3 2 2 2 3 4 2 3 5 5 5 3 1 4 4 3 2 2 2 2 2 2 3 3 2 3 3 4
7 6 5 4 3 2 1 1 1 1 1 2 2 2 2 2 3 3 2 0 1 1 0 2 1 1 2 2 2 2 2 3 3 3 3 3 2 2 2 2 2 2 3
8 6 5 4 3 3 3 3 2 4 4 3 3 3 3 3 6 9 6 4 4 3 2 1 2 2 3 4 3 3 3 3 3 3 3 3 3 3 2 2 2 3 3
7 6 5 4 4 3 4 5 6 5 8 7 7 5 4 5 6 6 6 6 5 4 2 2 3 3 3 4 4 4 4 4 4 4 3 3 4 4 3 3 3 3 4
7 6 5 4 4 4 4 4 5 5 5 6 7 7 6 6 6 6 5 5 5 3 2 3 3 4 4 4 4 4 4 4 4 3 3 4 4 4 4 4 4 4 4
8 6 6 5 4 4 3 3 3 3 3 4 5 7 6 6 6 5 4 1 4 4 4 4 4 4 4 4 4 4 4 4 4 4 4 4 4 4 4 4 4 5 5
8 6 6 5 5 4 4 4 3 3 2 3 3 5 4 3 4 4 3 3 4 4 4 4 4 4 4 4 4 4 5 4 5 5 4 5 5 5 5 5 5 6 6
7 7 6 6 6 5 4 4 4 3 2 2 2 3 2 1 2 4 4 4 4 4 4 4 4 4 4 4 4 5 5 5 5 5 5 5 5 5 6 7 6 7 6
8 9 9 6 5 5 4 4 4 3 2 2 3 4 4 2 3 3 3 3 3 4 4 4 3 4 4 4 4 5 6 5 5 6 6 6 6 6 6 6 7 7 7
8 8 7 6 6 5 5 4 4 3 3 3 3 4 2 0 2 2 2 2 3 3 3 3 3 4 4 4 5 5 5 5 6 6 7 7 7 7 7 7 7 7 7
8 8 7 7 6 6 5 4 4 4 3 3 2 2 2 1 1 1 2 2 2 2 2 3 3 3 4 4 4 5 5 6 6 7 8 8 7 7 7 8 9 10 9
8 8 8 7 7 6 5 5 4 4 3 3 2 2 1 1 0 1 1 1 2 2 3 3 4 5 6 5 4 4 5 7 8 8 10 9 9 8 8 8 9 10 10
8 8 8 7 7 6 5 5 4 4 3 3 2 2 1 0 0 1 1 2 2 3 3 4 3 4 6 7 7 6 7 8 8 9 9 8 10 10 10 10 9 10 10
8 8 7 6 6 6 5 5 5 4 3 3 2 1 1 1 1 1 2 2 3 3 4 3 5 6 8 7 8 8 9 9 10 11 10 8 9 9 10 9 12 11 12
Wind_Direction
228 248 267 298 313 315 322 328 329 328 329 329 331 335 332 330 328 315 309 303 278 278 267 253 249 251 233 229 231 236 237 245 252 248 227 228 215 221 200 217 215 211 202
210 239 270 297 305 315 331 332 326 324 327 333 341 345 349 343 342 333 325 308 284 285 281 266 255 242 235 234 228 226 228 239 251 253 237 233 234 219 214 214 215 213 214
188 212 236 260 309 324 330 332 331 330 332 337 343 351 351 351 354 351 345 334 313 300 297 286 273 254 240 229 228 228 227 225 236 249 251 248 242 219 219 218 215 214 218
189 205 230 257 292 307 320 327 332 334 333 337 343 349 352 353 351 353 354 351 349 333 310 296 288 267 253 243 233 230 230 231 230 241 244 243 238 224 223 218 217 209 215
190 204 221 238 253 287 306 316 327 333 329 337 341 348 356 353 2 353 351 351 345 334 322 320 331 334 310 278 264 241 229 231 231 233 237 238 230 218 221 218 226 221 228
196 205 209 236 238 267 289 307 324 326 326 332 337 346 355 6 17 354 329 336 342 344 342 335 313 240 244 237 266 274 267 248 242 237 236 236 238 230 226 224 222 225 227
196 194 209 225 229 255 274 291 302 308 323 324 333 340 344 19 12 344 326 314 327 342 345 341 328 341 255 234 207 220 237 248 260 266 253 246 245 238 229 227 227 245 248
192 191 196 223 232 247 269 287 292 307 321 317 332 338 339 10 9 336 311 291 314 333 342 339 330 345 7 317 254 229 234 239 247 251 262 261 257 250 239 240 240 251 266
186 191 185 196 215 238 262 284 294 305 311 308 325 329 329 10 26 344 307 296 314 340 359 0 345 351 36 330 283 256 252 248 219 239 274 280 284 265 245 228 223 227 242
179 184 171 181 207 241 275 294 303 301 298 300 333 335 349 2 33 4 324 301 319 335 358 13 43 10 11 332 292 291 288 298 290 227 226 223 228 211 211 225 228 231 242
167 167 163 174 196 242 298 306 305 309 314 319 346 359 11 12 34 20 348 323 330 334 352 2 37 32 12 352 317 321 341 321 302 294 282 274 257 239 224 228 235 239 241
158 161 164 166 170 166 142 341 332 331 323 346 0 24 17 40 24 26 16 357 336 342 357 8 38 31 21 14 359 11 352 309 298 306 310 305 296 289 275 258 248 251 255
159 162 164 159 150 138 134 121 33 357 344 1 10 13 22 19 43 44 24 17 355 346 31 37 24 9 345 54 45 4 334 332 343 337 334 336 333 319 307 293 281 265 267
164 166 163 164 153 135 106 59 33 7 358 0 3 8 15 19 10 3 5 63 168 200 99 121 162 15 3 14 17 15 8 15 354 344 339 334 330 320 307 295 280 274 266
170 170 167 162 152 134 108 56 42 50 27 4 3 1 359 15 29 13 356 2 4 8 350 25 30 30 26 21 20 21 12 10 2 352 342 334 326 320 316 311 290 276 268
174 172 168 162 156 155 140 116 73 69 68 58 38 14 50 44 28 24 25 20 14 2 6 42 33 28 21 13 7 8 9 5 356 349 345 340 331 325 319 314 301 289 285
176 170 166 166 162 165 163 158 142 128 109 78 62 51 44 41 41 37 34 36 31 16 52 44 32 24 16 11 6 1 360 358 346 342 342 340 335 326 321 319 316 308 300
174 164 165 163 164 164 162 162 160 157 144 122 95 70 55 49 40 25 358 15 62 55 44 36 29 20 11 2 357 351 348 348 344 340 339 334 329 323 320 316 311 310 306
169 165 164 157 157 154 153 151 144 141 131 120 113 101 88 91 86 47 18 44 46 46 40 32 21 13 7 0 355 347 346 346 345 338 335 332 328 321 316 311 308 307 299
159 150 156 158 155 153 153 150 145 141 131 113 91 76 86 82 71 64 53 45 43 40 32 27 21 11 3 359 353 346 343 344 343 340 337 332 327 320 313 310 308 306 302
156 154 161 162 157 155 154 152 148 145 133 111 86 64 21 49 65 60 52 44 36 30 23 15 11 4 360 353 346 343 344 343 342 337 333 329 325 320 314 308 307 305 303
159 159 164 162 158 157 154 154 151 147 141 132 119 115 118 90 68 62 54 44 34 22 10 0 1 4 357 350 346 343 342 341 338 334 329 324 320 315 313 310 307 305 303
162 160 160 159 156 151 162 160 158 156 150 142 137 131 128 95 75 55 43 27 9 360 359 353 350 352 352 348 347 342 339 339 335 330 325 319 315 311 309 308 307 307 302
165 164 162 161 161 164 165 162 160 156 154 152 149 143 132 118 71 31 3 355 348 348 348 346 343 341 341 339 336 338 343 340 330 321 319 312 309 307 304 300 299 299 300
167 166 166 167 166 167 165 164 164 163 161 162 159 153 147 138 341 335 339 342 336 335 336 331 330 331 333 332 330 334 346 335 321 316 312 307 305 303 303 302 300 299 296
166 166 167 168 169 170 170 170 170 169 169 169 175 179 193 249 295 313 324 328 326 325 326 327 330 327 325 325 334 338 328 317 311 305 302 301 300 299 301 297 298 297 295